| time (UTC) | temp F | wind direction | speed MPH | gust MPH | rain 1hr in | rain 24hr in | rain mn in | humidity % | barometer mb |
| 20260510200104 | 65 | 322 | 3.0 | 5.0 | 0.00 | 0.00 | 0.00 | 60 | 1017.0 |
| 20260510195603 | 65 | 270 | 3.0 | 7.0 | 0.00 | 0.00 | 0.00 | 58 | 1016.9 |
| 20260510195330 | 65 | 301 | 3.0 | 7.0 | 0.00 | 0.00 | 0.00 | 57 | 1017.0 |
| 20260510194602 | 63 | 285 | 2.0 | 5.0 | 0.00 | 0.00 | 0.00 | 62 | 1017.0 |
| 20260510194101 | 64 | 241 | 3.0 | 7.0 | 0.00 | 0.00 | 0.00 | 61 | 1017.1 |
| 20260510193601 | 64 | 311 | 4.0 | 7.0 | 0.00 | 0.00 | 0.00 | 62 | 1017.0 |
| 20260510193101 | 65 | 317 | 4.0 | 7.0 | 0.00 | 0.00 | 0.00 | 60 | 1017.0 |
| 20260510192602 | 64 | 339 | 5.0 | 8.0 | 0.00 | 0.00 | 0.00 | 60 | 1017.0 |
| 20260510192325 | 65 | 314 | 5.0 | 9.0 | 0.00 | 0.00 | 0.00 | 59 | 1017.0 |
| 20260510191602 | 66 | 295 | 4.0 | 9.0 | 0.00 | 0.00 | 0.00 | 56 | 1016.9 |
| 20260510191101 | 66 | 338 | 2.0 | 6.0 | 0.00 | 0.00 | 0.00 | 56 | 1016.8 |
| 20260510190602 | 65 | 307 | 2.0 | 6.0 | 0.00 | 0.00 | 0.00 | 57 | 1016.8 |
| 20260510185832 | 62 | 173 | 2.0 | 4.0 | 0.00 | 0.00 | 0.00 | 62 | 1016.8 |
| 20260510185333 | 62 | 227 | 2.0 | 4.0 | 0.00 | 0.00 | 0.00 | 63 | 1016.8 |
| 20260510184601 | 62 | 204 | 3.0 | 7.0 | 0.00 | 0.00 | 0.00 | 62 | 1016.8 |
| 20260510184102 | 62 | 263 | 3.0 | 7.0 | 0.00 | 0.00 | 0.00 | 62 | 1016.7 |
| 20260510183604 | 63 | 314 | 2.0 | 7.0 | 0.00 | 0.00 | 0.00 | 61 | 1016.6 |
| 20260510183100 | 63 | 314 | 3.0 | 9.0 | 0.00 | 0.00 | 0.00 | 62 | 1016.6 |
| 20260510182557 | 62 | 305 | 5.0 | 9.0 | 0.00 | 0.00 | 0.00 | 62 | 1016.5 |
| 20260510182053 | 63 | 308 | 4.0 | 9.0 | 0.00 | 0.00 | 0.00 | 62 | 1016.5 |
| 20260510181553 | 63 | 228 | 3.0 | 7.0 | 0.00 | 0.00 | 0.00 | 62 | 1016.4 |
| 20260510181052 | 63 | 245 | 3.0 | 8.0 | 0.00 | 0.00 | 0.00 | 61 | 1016.5 |
| 20260510180826 | 62 | 163 | 3.0 | 8.0 | 0.00 | 0.00 | 0.00 | 61 | 1016.5 |
| 20260510180319 | 61 | 234 | 4.0 | 9.0 | 0.00 | 0.00 | 0.00 | 63 | 1016.5 |
| 20260510175551 | 60 | 309 | 5.0 | 9.0 | 0.00 | 0.00 | 0.00 | 64 | 1016.5 |
| 20260510175051 | 61 | 252 | 5.0 | 9.0 | 0.00 | 0.00 | 0.00 | 63 | 1016.5 |
| 20260510174549 | 61 | 285 | 4.0 | 9.0 | 0.00 | 0.00 | 0.00 | 65 | 1016.4 |
| 20260510174050 | 60 | 270 | 4.0 | 10.0 | 0.00 | 0.00 | 0.00 | 63 | 1016.3 |
| 20260510173549 | 60 | 277 | 5.0 | 10.0 | 0.00 | 0.00 | 0.00 | 63 | 1016.5 |
| 20260510173048 | 60 | 247 | 5.0 | 11.0 | 0.00 | 0.00 | 0.00 | 63 | 1016.4 |
| 20260510172816 | 60 | 251 | 4.0 | 11.0 | 0.00 | 0.00 | 0.00 | 62 | 1016.2 |
| 20260510172049 | 59 | 253 | 4.0 | 9.0 | 0.00 | 0.00 | 0.00 | 63 | 1016.2 |
| 20260510171549 | 59 | 195 | 4.0 | 8.0 | 0.00 | 0.00 | 0.00 | 66 | 1016.2 |
| 20260510171049 | 59 | 259 | 4.0 | 9.0 | 0.00 | 0.00 | 0.00 | 66 | 1015.9 |
| 20260510170549 | 59 | 245 | 3.0 | 9.0 | 0.00 | 0.00 | 0.00 | 65 | 1015.9 |
| 20260510170318 | 59 | 258 | 4.0 | 9.0 | 0.00 | 0.00 | 0.00 | 66 | 1016.0 |
| 20260510165546 | 58 | 335 | 5.0 | 10.0 | 0.00 | 0.00 | 0.00 | 67 | 1016.0 |
| 20260510165047 | 58 | 251 | 5.0 | 10.0 | 0.00 | 0.00 | 0.00 | 68 | 1015.9 |
| 20260510164546 | 58 | 259 | 4.0 | 10.0 | 0.00 | 0.00 | 0.00 | 70 | 1016.1 |
| 20260510164045 | 57 | 214 | 3.0 | 9.0 | 0.00 | 0.00 | 0.00 | 71 | 1016.0 |
| 20260510163545 | 56 | 269 | 4.0 | 11.0 | 0.00 | 0.00 | 0.00 | 71 | 1016.0 |
| 20260510163045 | 56 | 178 | 4.0 | 11.0 | 0.00 | 0.00 | 0.00 | 72 | 1016.0 |
| 20260510162044 | 56 | 181 | 4.0 | 11.0 | 0.00 | 0.00 | 0.00 | 72 | 1016.1 |
| 20260510161045 | 56 | 218 | 3.0 | 10.0 | 0.00 | 0.00 | 0.00 | 73 | 1015.9 |
| 20260510160541 | 56 | 246 | 3.0 | 8.0 | 0.00 | 0.00 | 0.00 | 73 | 1015.8 |
| 20260510160041 | 56 | 246 | 3.0 | 8.0 | 0.00 | 0.00 | 0.00 | 75 | 1015.8 |
| 20260510155541 | 56 | 231 | 3.0 | 8.0 | 0.00 | 0.00 | 0.00 | 77 | 1015.8 |
| 20260510155041 | 56 | 234 | 2.0 | 5.0 | 0.00 | 0.00 | 0.00 | 76 | 1015.7 |
| 20260510154816 | 56 | 310 | 2.0 | 5.0 | 0.00 | 0.00 | 0.00 | 75 | 1015.6 |
| 20260510154041 | 57 | 243 | 1.0 | 3.0 | 0.00 | 0.00 | 0.00 | 77 | 1015.5 |
| 20260510153540 | 56 | 159 | 2.0 | 6.0 | 0.00 | 0.00 | 0.00 | 79 | 1015.6 |
| 20260510153041 | 56 | 170 | 2.0 | 6.0 | 0.00 | 0.00 | 0.00 | 80 | 1015.6 |
| 20260510152541 | 55 | 308 | 1.0 | 4.0 | 0.00 | 0.00 | 0.00 | 82 | 1015.6 |
| 20260510152040 | 55 | 295 | 1.0 | 2.0 | 0.00 | 0.00 | 0.00 | 83 | 1015.4 |
| 20260510151812 | 54 | 301 | 2.0 | 4.0 | 0.00 | 0.00 | 0.00 | 83 | 1015.5 |
| 20260510151040 | 54 | 303 | 2.0 | 4.0 | 0.00 | 0.00 | 0.00 | 83 | 1015.5 |
| 20260510150540 | 54 | 357 | 1.0 | 3.0 | 0.00 | 0.00 | 0.00 | 83 | 1015.3 |
| 20260510150040 | 54 | 326 | 1.0 | 3.0 | 0.00 | 0.00 | 0.00 | 81 | 1015.2 |
| 20260510145539 | 55 | 42 | 0.0 | 2.0 | 0.00 | 0.00 | 0.00 | 81 | 1015.0 |
| 20260510145307 | 55 | 120 | 1.0 | 4.0 | 0.00 | 0.00 | 0.00 | 80 | 1015.0 |
| 20260510144537 | 55 | 136 | 1.0 | 4.0 | 0.00 | 0.00 | 0.00 | 81 | 1014.9 |
| 20260510144035 | 55 | 192 | 0.0 | 2.0 | 0.00 | 0.00 | 0.00 | 80 | 1014.9 |
| 20260510143538 | 55 | 85 | 1.0 | 2.0 | 0.00 | 0.00 | 0.00 | 80 | 1015.1 |
| 20260510143034 | 55 | 75 | 1.0 | 2.0 | 0.00 | 0.00 | 0.00 | 79 | 1015.1 |
| 20260510142533 | 55 | 36 | 0.0 | 2.0 | 0.00 | 0.00 | 0.00 | 79 | 1015.3 |
| 20260510142030 | 55 | 22 | 0.0 | 2.0 | 0.00 | 0.00 | 0.00 | 80 | 1015.5 |
| 20260510141531 | 55 | 328 | 0.0 | 2.0 | 0.00 | 0.00 | 0.00 | 79 | 1015.2 |
| 20260510141258 | 55 | 301 | 0.0 | 1.0 | 0.00 | 0.00 | 0.00 | 79 | 1015.1 |
| 20260510140759 | 55 | 305 | 0.0 | 1.0 | 0.00 | 0.00 | 0.00 | 78 | 1014.9 |
| 20260510140030 | 56 | 307 | 0.0 | 1.0 | 0.00 | 0.00 | 0.00 | 77 | 1014.9 |
| 20260510135531 | 56 | 299 | 0.0 | 0.0 | 0.00 | 0.00 | 0.00 | 76 | 1015.0 |
| 20260510135029 | 56 | 295 | 0.0 | 2.0 | 0.00 | 0.00 | 0.00 | 77 | 1014.9 |
| 20260510134033 | 56 | 299 | 0.0 | 4.0 | 0.00 | 0.00 | 0.00 | 73 | 1014.9 |
| 20260510133532 | 56 | 228 | 0.0 | 3.0 | 0.00 | 0.00 | 0.00 | 74 | 1014.9 |
| 20260510133032 | 56 | 178 | 1.0 | 7.0 | 0.00 | 0.00 | 0.00 | 76 | 1014.8 |
| 20260510132532 | 56 | 193 | 2.0 | 8.0 | 0.00 | 0.00 | 0.00 | 76 | 1014.9 |
| 20260510132029 | 56 | 227 | 3.0 | 8.0 | 0.00 | 0.00 | 0.00 | 76 | 1015.0 |
| 20260510131030 | 56 | 189 | 4.0 | 10.0 | 0.00 | 0.00 | 0.00 | 75 | 1014.9 |
| 20260510130529 | 56 | 220 | 3.0 | 10.0 | 0.00 | 0.00 | 0.00 | 76 | 1014.9 |
| 20260510130030 | 56 | 220 | 2.0 | 8.0 | 0.00 | 0.00 | 0.00 | 76 | 1014.9 |
| 20260510125535 | 56 | 303 | 2.0 | 8.0 | 0.00 | 0.00 | 0.00 | 77 | 1014.8 |
| 20260510125034 | 54 | 266 | 0.0 | 7.0 | 0.00 | 0.00 | 0.00 | 79 | 1014.7 |
| 20260510124528 | 54 | 147 | 0.0 | 0.0 | 0.00 | 0.00 | 0.00 | 78 | 1014.8 |
| 20260510124016 | 54 | 99 | 0.0 | 0.0 | 0.00 | 0.00 | 0.00 | 78 | 1014.8 |
| 20260510123738 | 54 | 99 | 0.0 | 0.0 | 0.00 | 0.00 | 0.00 | 78 | 1014.7 |
| 20260510123006 | 54 | 98 | 0.0 | 0.0 | 0.00 | 0.00 | 0.00 | 78 | 1014.5 |
| 20260510122006 | 55 | 98 | 0.0 | 0.0 | 0.00 | 0.00 | 0.00 | 77 | 1014.6 |
| 20260510121504 | 55 | 98 | 0.0 | 0.0 | 0.00 | 0.00 | 0.00 | 77 | 1014.5 |
| 20260510121240 | 55 | 98 | 0.0 | 0.0 | 0.00 | 0.00 | 0.00 | 77 | 1014.7 |
| 20260510120512 | 55 | 98 | 0.0 | 0.0 | 0.00 | 0.00 | 0.00 | 77 | 1014.7 |
| 20260510120239 | 55 | 98 | 0.0 | 0.0 | 0.00 | 0.00 | 0.00 | 77 | 1014.8 |
| 20260510115510 | 55 | 98 | 0.0 | 0.0 | 0.00 | 0.00 | 0.00 | 77 | 1014.8 |
| 20260510115003 | 55 | 98 | 0.0 | 0.0 | 0.00 | 0.00 | 0.00 | 77 | 1014.8 |
| 20260510114503 | 55 | 98 | 0.0 | 0.0 | 0.00 | 0.00 | 0.00 | 77 | 1014.9 |
| 20260510113503 | 55 | 98 | 0.0 | 0.0 | 0.00 | 0.00 | 0.00 | 76 | 1015.0 |
| 20260510113001 | 55 | 359 | 0.0 | 0.0 | 0.00 | 0.00 | 0.00 | 76 | 1014.8 |
| 20260510112505 | 55 | 141 | 0.0 | 0.0 | 0.00 | 0.00 | 0.00 | 76 | 1015.0 |
| 20260510112004 | 55 | 141 | 0.0 | 0.0 | 0.00 | 0.00 | 0.00 | 76 | 1014.9 |
| 20260510111501 | 55 | 143 | 0.0 | 0.0 | 0.00 | 0.00 | 0.00 | 76 | 1014.8 |
| 20260510111001 | 55 | 148 | 0.0 | 0.0 | 0.00 | 0.00 | 0.00 | 76 | 1014.8 |
| 20260510110501 | 55 | 148 | 0.0 | 0.0 | 0.00 | 0.00 | 0.00 | 75 | 1014.8 |
| 20260510105957 | 55 | 152 | 0.0 | 0.0 | 0.00 | 0.00 | 0.00 | 75 | 1014.7 |
| 20260510105452 | 56 | 152 | 0.0 | 0.0 | 0.00 | 0.00 | 0.00 | 74 | 1014.7 |
| 20260510104946 | 56 | 152 | 0.0 | 0.0 | 0.00 | 0.00 | 0.00 | 74 | 1014.7 |
| 20260510104440 | 55 | 147 | 0.0 | 0.0 | 0.00 | 0.00 | 0.00 | 75 | 1014.7 |
| 20260510103936 | 55 | 157 | 0.0 | 0.0 | 0.00 | 0.00 | 0.00 | 74 | 1014.7 |
| 20260510103434 | 55 | 156 | 0.0 | 0.0 | 0.00 | 0.00 | 0.00 | 74 | 1014.7 |
| 20260510102934 | 56 | 157 | 0.0 | 0.0 | 0.00 | 0.00 | 0.00 | 74 | 1014.7 |
| 20260510102434 | 55 | 156 | 0.0 | 0.0 | 0.00 | 0.00 | 0.00 | 74 | 1014.7 |
| 20260510101933 | 55 | 156 | 0.0 | 0.0 | 0.00 | 0.00 | 0.00 | 74 | 1014.7 |
| 20260510101434 | 56 | 156 | 0.0 | 0.0 | 0.00 | 0.00 | 0.00 | 74 | 1014.7 |
| 20260510101157 | 56 | 157 | 0.0 | 2.0 | 0.00 | 0.00 | 0.00 | 74 | 1014.7 |
| 20260510100430 | 56 | 156 | 1.0 | 2.0 | 0.00 | 0.00 | 0.00 | 74 | 1014.7 |
| 20260510095930 | 56 | 156 | 2.0 | 3.0 | 0.00 | 0.00 | 0.00 | 74 | 1014.6 |
| 20260510095429 | 56 | 156 | 2.0 | 3.0 | 0.00 | 0.00 | 0.00 | 73 | 1014.6 |
| 20260510094932 | 56 | 172 | 1.0 | 3.0 | 0.00 | 0.00 | 0.00 | 73 | 1014.7 |
| 20260510094429 | 56 | 180 | 0.0 | 2.0 | 0.00 | 0.00 | 0.00 | 72 | 1014.7 |
| 20260510094150 | 57 | 180 | 0.0 | 2.0 | 0.00 | 0.00 | 0.00 | 72 | 1014.7 |
| 20260510093429 | 57 | 180 | 0.0 | 2.0 | 0.00 | 0.00 | 0.00 | 71 | 1014.7 |
| 20260510092928 | 57 | 180 | 0.0 | 2.0 | 0.00 | 0.00 | 0.00 | 71 | 1014.7 |
| 20260510092426 | 57 | 180 | 0.0 | 2.0 | 0.00 | 0.00 | 0.00 | 70 | 1014.8 |
| 20260510091926 | 58 | 181 | 0.0 | 2.0 | 0.00 | 0.00 | 0.00 | 69 | 1014.8 |
| 20260510091421 | 58 | 225 | 1.0 | 2.0 | 0.00 | 0.00 | 0.00 | 69 | 1014.8 |
| 20260510091145 | 58 | 220 | 1.0 | 5.0 | 0.00 | 0.00 | 0.00 | 69 | 1014.8 |
| 20260510090419 | 58 | 200 | 2.0 | 5.0 | 0.00 | 0.00 | 0.00 | 69 | 1014.8 |
| 20260510085920 | 58 | 174 | 1.0 | 5.0 | 0.00 | 0.00 | 0.00 | 69 | 1014.8 |
| 20260510085417 | 58 | 191 | 1.0 | 4.0 | 0.00 | 0.00 | 0.00 | 68 | 1014.7 |
| 20260510084917 | 58 | 129 | 1.0 | 3.0 | 0.00 | 0.00 | 0.00 | 68 | 1014.7 |
| 20260510084417 | 58 | 184 | 2.0 | 4.0 | 0.00 | 0.00 | 0.00 | 68 | 1014.8 |
| 20260510083918 | 57 | 183 | 2.0 | 4.0 | 0.00 | 0.00 | 0.00 | 68 | 1014.9 |
| 20260510083418 | 57 | 191 | 2.0 | 4.0 | 0.00 | 0.00 | 0.00 | 69 | 1014.8 |
| 20260510082918 | 56 | 174 | 1.0 | 4.0 | 0.00 | 0.00 | 0.00 | 70 | 1014.8 |
| 20260510082414 | 56 | 174 | 1.0 | 3.0 | 0.00 | 0.00 | 0.00 | 70 | 1014.8 |
| 20260510081914 | 57 | 189 | 1.0 | 2.0 | 0.00 | 0.00 | 0.00 | 69 | 1014.7 |
| 20260510081414 | 57 | 253 | 2.0 | 6.0 | 0.00 | 0.00 | 0.00 | 68 | 1014.6 |
| 20260510080914 | 57 | 249 | 2.0 | 6.0 | 0.00 | 0.00 | 0.00 | 68 | 1014.6 |
| 20260510080414 | 57 | 128 | 1.0 | 3.0 | 0.00 | 0.00 | 0.00 | 69 | 1014.7 |
| 20260510075914 | 57 | 165 | 1.0 | 3.0 | 0.00 | 0.00 | 0.00 | 69 | 1014.6 |
| 20260510075414 | 57 | 238 | 1.0 | 3.0 | 0.00 | 0.00 | 0.00 | 69 | 1014.7 |
| 20260510074914 | 57 | 104 | 1.0 | 3.0 | 0.00 | 0.00 | 0.00 | 69 | 1014.6 |
| 20260510074414 | 57 | 104 | 1.0 | 2.0 | 0.00 | 0.00 | 0.00 | 69 | 1014.5 |
| 20260510073912 | 57 | 105 | 0.0 | 2.0 | 0.00 | 0.00 | 0.00 | 69 | 1014.5 |
| 20260510073409 | 57 | 105 | 1.0 | 3.0 | 0.00 | 0.00 | 0.00 | 69 | 1014.5 |
| 20260510072910 | 57 | 106 | 2.0 | 3.0 | 0.00 | 0.00 | 0.00 | 69 | 1014.5 |
| 20260510072412 | 57 | 109 | 2.0 | 3.0 | 0.00 | 0.00 | 0.00 | 69 | 1014.5 |
| 20260510071909 | 57 | 108 | 2.0 | 3.0 | 0.00 | 0.00 | 0.00 | 69 | 1014.6 |
| 20260510071410 | 57 | 114 | 2.0 | 3.0 | 0.00 | 0.00 | 0.00 | 68 | 1014.6 |
| 20260510070910 | 58 | 118 | 2.0 | 5.0 | 0.00 | 0.00 | 0.00 | 67 | 1014.6 |
| 20260510070409 | 58 | 230 | 2.0 | 7.0 | 0.00 | 0.00 | 0.00 | 66 | 1014.7 |
| 20260510065907 | 60 | 270 | 3.0 | 7.0 | 0.00 | 0.00 | 0.00 | 64 | 1014.7 |
| 20260510065407 | 59 | 263 | 3.0 | 7.0 | 0.00 | 0.00 | 0.00 | 65 | 1014.8 |
| 20260510064907 | 59 | 251 | 2.0 | 5.0 | 0.00 | 0.00 | 0.00 | 66 | 1014.8 |
| 20260510064407 | 58 | 295 | 1.0 | 5.0 | 0.00 | 0.00 | 0.00 | 67 | 1014.7 |
| 20260510062907 | 57 | 127 | 1.0 | 4.0 | 0.00 | 0.00 | 0.00 | 69 | 1014.8 |
| 20260510062637 | 56 | 119 | 0.0 | 2.0 | 0.00 | 0.00 | 0.00 | 70 | 1014.8 |
| 20260510061907 | 56 | 116 | 0.0 | 0.0 | 0.00 | 0.00 | 0.00 | 69 | 1014.8 |
| 20260510061407 | 56 | 116 | 0.0 | 0.0 | 0.00 | 0.00 | 0.00 | 69 | 1014.8 |
| 20260510060909 | 57 | 116 | 0.0 | 0.0 | 0.00 | 0.00 | 0.00 | 69 | 1014.7 |
| 20260510060407 | 57 | 116 | 0.0 | 0.0 | 0.00 | 0.00 | 0.00 | 69 | 1014.7 |
| 20260510055907 | 57 | 116 | 0.0 | 0.0 | 0.00 | 0.00 | 0.00 | 68 | 1014.7 |
| 20260510055405 | 57 | 116 | 0.0 | 0.0 | 0.00 | 0.00 | 0.00 | 68 | 1014.7 |
| 20260510054904 | 57 | 116 | 0.0 | 2.0 | 0.00 | 0.00 | 0.00 | 68 | 1014.7 |
| 20260510054403 | 58 | 117 | 1.0 | 3.0 | 0.00 | 0.00 | 0.00 | 68 | 1014.7 |
| 20260510053904 | 57 | 117 | 2.0 | 3.0 | 0.00 | 0.00 | 0.00 | 68 | 1014.7 |
| 20260510053402 | 57 | 125 | 1.0 | 3.0 | 0.00 | 0.00 | 0.00 | 68 | 1014.8 |
| 20260510052901 | 57 | 126 | 1.0 | 2.0 | 0.00 | 0.00 | 0.00 | 68 | 1014.9 |
| 20260510052401 | 57 | 126 | 0.0 | 2.0 | 0.00 | 0.00 | 0.00 | 68 | 1014.9 |
| 20260510051903 | 58 | 126 | 1.0 | 2.0 | 0.00 | 0.00 | 0.00 | 67 | 1014.9 |
| 20260510051401 | 58 | 126 | 1.0 | 2.0 | 0.00 | 0.00 | 0.00 | 68 | 1014.9 |
| 20260510050858 | 58 | 126 | 0.0 | 3.0 | 0.00 | 0.00 | 0.00 | 67 | 1014.9 |
| 20260510050357 | 58 | 126 | 1.0 | 3.0 | 0.00 | 0.00 | 0.00 | 67 | 1015.0 |
| 20260510045854 | 58 | 126 | 2.0 | 6.0 | 0.00 | 0.00 | 0.00 | 67 | 1015.1 |
| 20260510045355 | 58 | 102 | 3.0 | 7.0 | 0.00 | 0.00 | 0.00 | 67 | 1015.1 |
| 20260510044855 | 58 | 164 | 3.0 | 8.0 | 0.00 | 0.00 | 0.00 | 67 | 1015.2 |
| 20260510044355 | 58 | 155 | 3.0 | 8.0 | 0.00 | 0.00 | 0.00 | 67 | 1015.3 |
| 20260510043854 | 58 | 157 | 4.0 | 8.0 | 0.00 | 0.00 | 0.00 | 66 | 1015.2 |
| 20260510043354 | 58 | 191 | 4.0 | 9.0 | 0.00 | 0.00 | 0.00 | 67 | 1015.2 |
| 20260510042854 | 58 | 152 | 4.0 | 9.0 | 0.00 | 0.00 | 0.00 | 66 | 1015.3 |
| 20260510042357 | 59 | 199 | 3.0 | 8.0 | 0.00 | 0.00 | 0.00 | 65 | 1015.3 |
| 20260510041850 | 59 | 211 | 2.0 | 8.0 | 0.00 | 0.00 | 0.00 | 66 | 1015.2 |
| 20260510041616 | 58 | 135 | 2.0 | 3.0 | 0.00 | 0.00 | 0.00 | 66 | 1015.2 |
| 20260510040836 | 58 | 178 | 2.0 | 3.0 | 0.00 | 0.00 | 0.00 | 66 | 1015.1 |
| 20260510040329 | 58 | 66 | 2.0 | 3.0 | 0.00 | 0.00 | 0.00 | 67 | 1015.1 |
| 20260510035829 | 58 | 60 | 2.0 | 3.0 | 0.00 | 0.00 | 0.00 | 67 | 1015.1 |
| 20260510035603 | 58 | 58 | 1.0 | 3.0 | 0.00 | 0.00 | 0.00 | 67 | 1015.0 |
| 20260510035059 | 58 | 58 | 0.0 | 2.0 | 0.00 | 0.00 | 0.00 | 68 | 1015.0 |
| 20260510034330 | 59 | 58 | 0.0 | 2.0 | 0.00 | 0.00 | 0.00 | 68 | 1014.9 |
| 20260510033828 | 59 | 56 | 1.0 | 2.0 | 0.00 | 0.00 | 0.00 | 67 | 1014.9 |
| 20260510033601 | 59 | 54 | 0.0 | 2.0 | 0.00 | 0.00 | 0.00 | 66 | 1015.0 |
| 20260510032829 | 60 | 45 | 0.0 | 0.0 | 0.00 | 0.00 | 0.00 | 66 | 1015.0 |
| 20260510032601 | 60 | 43 | 0.0 | 2.0 | 0.00 | 0.00 | 0.00 | 65 | 1015.1 |
| 20260510031829 | 60 | 43 | 0.0 | 2.0 | 0.00 | 0.00 | 0.00 | 65 | 1015.0 |
| 20260510031330 | 60 | 43 | 1.0 | 2.0 | 0.00 | 0.00 | 0.00 | 65 | 1015.1 |
| 20260510030829 | 60 | 43 | 1.0 | 2.0 | 0.00 | 0.00 | 0.00 | 64 | 1015.1 |
| 20260510030601 | 60 | 43 | 1.0 | 2.0 | 0.00 | 0.00 | 0.00 | 65 | 1015.0 |
| 20260510025828 | 60 | 43 | 1.0 | 2.0 | 0.00 | 0.00 | 0.00 | 65 | 1015.2 |
| 20260510025329 | 60 | 43 | 2.0 | 2.0 | 0.00 | 0.00 | 0.00 | 66 | 1015.1 |
| 20260510024829 | 61 | 43 | 2.0 | 2.0 | 0.00 | 0.00 | 0.00 | 66 | 1015.2 |
| 20260510024332 | 61 | 357 | 1.0 | 2.0 | 0.00 | 0.00 | 0.00 | 65 | 1015.3 |
| 20260510024101 | 61 | 326 | 1.0 | 2.0 | 0.00 | 0.00 | 0.00 | 64 | 1015.3 |
| 20260510023323 | 62 | 324 | 0.0 | 1.0 | 0.00 | 0.00 | 0.00 | 63 | 1015.3 |
| 20260510022816 | 62 | 318 | 0.0 | 0.0 | 0.00 | 0.00 | 0.00 | 60 | 1015.3 |
| 20260510022317 | 63 | 318 | 1.0 | 3.0 | 0.00 | 0.00 | 0.00 | 59 | 1015.5 |
| 20260510021812 | 64 | 318 | 2.0 | 3.0 | 0.00 | 0.00 | 0.00 | 56 | 1015.4 |
| 20260510021310 | 64 | 318 | 2.0 | 4.0 | 0.00 | 0.00 | 0.00 | 57 | 1015.5 |
| 20260510020808 | 64 | 320 | 3.0 | 4.0 | 0.00 | 0.00 | 0.00 | 57 | 1015.5 |
| 20260510015805 | 66 | 314 | 2.0 | 4.0 | 0.00 | 0.00 | 0.00 | 55 | 1015.7 |
| 20260510015306 | 66 | 306 | 1.0 | 6.0 | 0.00 | 0.00 | 0.00 | 56 | 1015.8 |
| 20260510014803 | 67 | 69 | 1.0 | 6.0 | 0.00 | 0.00 | 0.00 | 54 | 1015.8 |
| 20260510014302 | 67 | 67 | 2.0 | 6.0 | 0.00 | 0.00 | 0.00 | 56 | 1015.9 |
| 20260510013802 | 65 | 85 | 2.0 | 6.0 | 0.00 | 0.00 | 0.00 | 54 | 1015.9 |
| 20260510013301 | 67 | 87 | 2.0 | 5.0 | 0.00 | 0.00 | 0.00 | 55 | 1015.7 |
| 20260510012801 | 66 | 13 | 1.0 | 4.0 | 0.00 | 0.00 | 0.00 | 55 | 1015.9 |
| 20260510012306 | 66 | 89 | 2.0 | 5.0 | 0.00 | 0.00 | 0.00 | 54 | 1016.0 |
| 20260510011301 | 67 | 96 | 1.0 | 5.0 | 0.00 | 0.00 | 0.00 | 53 | 1016.2 |
| 20260510010802 | 67 | 104 | 2.0 | 4.0 | 0.00 | 0.00 | 0.00 | 55 | 1016.4 |
| 20260510010301 | 66 | 86 | 1.0 | 4.0 | 0.00 | 0.00 | 0.00 | 53 | 1016.4 |
| 20260510005802 | 65 | 88 | 1.0 | 3.0 | 0.00 | 0.00 | 0.00 | 55 | 1016.6 |
| 20260510005527 | 66 | 56 | 1.0 | 3.0 | 0.00 | 0.00 | 0.00 | 52 | 1016.6 |
| 20260510004244 | 67 | 323 | 2.0 | 4.0 | 0.00 | 0.00 | 0.00 | 52 | 1016.8 |
| 20260510003738 | 67 | 26 | 2.0 | 4.0 | 0.00 | 0.00 | 0.00 | 54 | 1016.8 |
| 20260510003231 | 67 | 317 | 2.0 | 5.0 | 0.00 | 0.00 | 0.00 | 54 | 1016.8 |
| 20260510002732 | 67 | 312 | 2.0 | 5.0 | 0.00 | 0.00 | 0.00 | 53 | 1016.8 |
| 20260510002504 | 67 | 7 | 2.0 | 4.0 | 0.00 | 0.00 | 0.00 | 50 | 1016.8 |
| 20260510001730 | 66 | 12 | 3.0 | 7.0 | 0.00 | 0.00 | 0.00 | 53 | 1016.9 |
| 20260510001500 | 67 | 319 | 3.0 | 7.0 | 0.00 | 0.00 | 0.00 | 51 | 1017.0 |
| 20260510001004 | 68 | 308 | 3.0 | 5.0 | 0.00 | 0.00 | 0.00 | 51 | 1017.2 |
| 20260510000230 | 68 | 349 | 3.0 | 5.0 | 0.00 | 0.00 | 0.00 | 49 | 1017.0 |
| 20260509235230 | 68 | 316 | 2.0 | 4.0 | 0.00 | 0.00 | 0.00 | 50 | 1017.2 |
| 20260509234730 | 68 | 70 | 2.0 | 6.0 | 0.00 | 0.00 | 0.00 | 49 | 1017.2 |
| 20260509234231 | 67 | 56 | 3.0 | 6.0 | 0.00 | 0.00 | 0.00 | 54 | 1017.5 |
| 20260509233730 | 66 | 314 | 2.0 | 5.0 | 0.00 | 0.00 | 0.00 | 54 | 1017.5 |
| 20260509233230 | 65 | 311 | 2.0 | 6.0 | 0.00 | 0.00 | 0.00 | 53 | 1017.6 |
| 20260509232733 | 65 | 331 | 2.0 | 6.0 | 0.00 | 0.00 | 0.00 | 55 | 1017.7 |
| 20260509232230 | 65 | 322 | 2.0 | 6.0 | 0.00 | 0.00 | 0.00 | 55 | 1017.7 |
| 20260509231732 | 65 | 326 | 2.0 | 6.0 | 0.00 | 0.00 | 0.00 | 54 | 1017.8 |
| 20260509231233 | 65 | 316 | 2.0 | 5.0 | 0.00 | 0.00 | 0.00 | 54 | 1017.8 |
| 20260509230733 | 66 | 309 | 2.0 | 5.0 | 0.00 | 0.00 | 0.00 | 54 | 1017.9 |
| 20260509230233 | 66 | 318 | 3.0 | 7.0 | 0.00 | 0.00 | 0.00 | 54 | 1018.2 |
| 20260509225958 | 65 | 307 | 3.0 | 7.0 | 0.00 | 0.00 | 0.00 | 53 | 1018.3 |
| 20260509225229 | 65 | 322 | 4.0 | 7.0 | 0.00 | 0.00 | 0.00 | 52 | 1018.3 |
| 20260509224729 | 66 | 316 | 3.0 | 5.0 | 0.00 | 0.00 | 0.00 | 53 | 1018.3 |
| 20260509224230 | 66 | 313 | 2.0 | 5.0 | 0.00 | 0.00 | 0.00 | 52 | 1018.4 |
| 20260509223954 | 67 | 308 | 3.0 | 8.0 | 0.00 | 0.00 | 0.00 | 54 | 1018.5 |
| 20260509222729 | 66 | 316 | 4.0 | 9.0 | 0.00 | 0.00 | 0.00 | 55 | 1018.6 |
| 20260509222500 | 66 | 335 | 3.0 | 8.0 | 0.00 | 0.00 | 0.00 | 54 | 1018.7 |
| 20260509221729 | 67 | 317 | 2.0 | 7.0 | 0.00 | 0.00 | 0.00 | 53 | 1018.8 |
| 20260509221229 | 67 | 309 | 3.0 | 7.0 | 0.00 | 0.00 | 0.00 | 55 | 1019.0 |
| 20260509220729 | 65 | 314 | 4.0 | 8.0 | 0.00 | 0.00 | 0.00 | 55 | 1019.0 |
| 20260509220225 | 66 | 318 | 3.0 | 8.0 | 0.00 | 0.00 | 0.00 | 54 | 1019.1 |
| 20260509215719 | 66 | 317 | 3.0 | 5.0 | 0.00 | 0.00 | 0.00 | 57 | 1019.0 |
| 20260509215441 | 65 | 322 | 3.0 | 6.0 | 0.00 | 0.00 | 0.00 | 63 | 1019.1 |
| 20260509214706 | 65 | 322 | 4.0 | 6.0 | 0.00 | 0.00 | 0.00 | 60 | 1019.1 |
| 20260509214207 | 65 | 318 | 4.0 | 6.0 | 0.00 | 0.00 | 0.00 | 60 | 1019.2 |
| 20260509213708 | 65 | 303 | 2.0 | 5.0 | 0.00 | 0.00 | 0.00 | 63 | 1019.2 |
| 20260509213208 | 64 | 320 | 2.0 | 4.0 | 0.00 | 0.00 | 0.00 | 61 | 1019.3 |
| 20260509212202 | 63 | 307 | 2.0 | 4.0 | 0.00 | 0.00 | 0.00 | 65 | 1019.4 |
| 20260509211700 | 62 | 8 | 3.0 | 5.0 | 0.00 | 0.00 | 0.00 | 65 | 1019.4 |
| 20260509211201 | 63 | 321 | 3.0 | 5.0 | 0.00 | 0.00 | 0.00 | 66 | 1019.5 |
| 20260509210701 | 64 | 310 | 3.0 | 5.0 | 0.00 | 0.00 | 0.00 | 66 | 1019.4 |
| 20260509210202 | 62 | 314 | 3.0 | 5.0 | 0.00 | 0.00 | 0.00 | 67 | 1019.4 |
| 20260509205700 | 63 | 295 | 2.0 | 4.0 | 0.00 | 0.00 | 0.00 | 65 | 1019.6 |
| 20260509205202 | 64 | 16 | 3.0 | 5.0 | 0.00 | 0.00 | 0.00 | 64 | 1019.6 |
| 20260509204701 | 63 | 352 | 3.0 | 6.0 | 0.00 | 0.00 | 0.00 | 65 | 1019.6 |
| 20260509204202 | 62 | 317 | 2.0 | 6.0 | 0.00 | 0.00 | 0.00 | 67 | 1019.7 |
| 20260509203701 | 62 | 295 | 2.0 | 5.0 | 0.00 | 0.00 | 0.00 | 66 | 1019.8 |
| 20260509203201 | 61 | 311 | 3.0 | 5.0 | 0.00 | 0.00 | 0.00 | 70 | 1019.8 |
| 20260509202701 | 61 | 318 | 3.0 | 5.0 | 0.00 | 0.00 | 0.00 | 70 | 1019.7 |
| 20260509202200 | 61 | 312 | 2.0 | 5.0 | 0.00 | 0.00 | 0.00 | 71 | 1019.7 |
| 20260509201710 | 62 | 316 | 2.0 | 5.0 | 0.00 | 0.00 | 0.00 | 69 | 1019.5 |
| 20260509201431 | 62 | 317 | 2.0 | 4.0 | 0.00 | 0.00 | 0.00 | 69 | 1019.6 |
| 20260509200934 | 62 | 334 | 2.0 | 4.0 | 0.00 | 0.00 | 0.00 | 71 | 1019.6 |